[[{"header":{"parameterUnit":"m.s-1","parameterCategory":1,"la1":30.2992,"la2":30.254,"lo1":-89.0895,"lo2":-89.0443,"dy":0.0025,"dx":0.0025,"nx":19,"ny":19,"refTime":"2026-03-10T03:00:00:Z","depth":0,"parameterNumber":2,"parameterNumberName":"U-component_of_WINDS"},"data":[0,0,0,-1.8813,-1.8814,-1.8849,-1.8849,-1.8893,-1.8893,0,0,0,0,0,0,0,0,0,0,0,-1.8802,-1.8803,-1.8813,-1.8814,-1.8849,-1.8849,-1.8893,-1.8893,0,0,0,0,0,0,0,0,0,0,0,-1.8802,-1.8803,-1.8803,-1.8814,-1.8849,-1.8849,-1.8893,-1.8867,0,0,0,0,0,0,0,0,0,0,-1.8833,-1.8822,-1.8803,-1.8803,-1.8814,-1.8849,-1.8849,-1.8865,-1.8868,-1.8876,0,-1.8884,0,-1.8889,-1.8896,-1.8896,0,0,0,-1.8815,-1.882,-1.883,-1.8803,-1.8815,-1.8849,-1.8834,-1.8867,-1.887,-1.888,-1.8885,-1.8886,-1.889,-1.8896,-1.8897,-1.8942,-1.8942,0,0,-1.8813,-1.8809,-1.8828,-1.8832,-1.8827,-1.8832,-1.8835,-1.8869,-1.8873,-1.8885,-1.8887,-1.8891,-1.8897,-1.8897,-1.8942,-1.8942,0,0,0,-1.8807,-1.8807,-1.8816,-1.883,-1.8837,-1.8833,-1.8836,-1.8872,-1.8875,-1.8888,-1.8891,-1.8897,-1.8898,-1.8942,-1.8942,-1.8947,0,0,0,-1.8806,-1.8804,-1.8815,-1.8813,-1.8836,-1.8855,-1.8838,-1.8873,-1.8877,-1.8891,-1.8897,-1.8898,-1.8941,-1.8942,-1.8946,-1.8949,0,0,0,-1.88,-1.8803,-1.8808,-1.8813,-1.8828,-1.8854,-1.886,-1.8874,-1.8879,-1.8896,-1.8898,-1.8941,-1.8942,-1.8946,-1.8949,-1.8959,0,0,0,-1.8793,-1.8813,-1.8808,-1.8831,-1.8828,-1.8857,-1.8859,-1.8882,-1.8897,-1.8897,-1.8941,-1.8942,-1.8945,-1.8948,-1.8959,-1.8967,-1.897,0,0,-1.8815,-1.8815,-1.8829,-1.8826,-1.8855,-1.8852,-1.8882,-1.8901,-1.8906,-1.893,-1.8931,-1.8946,-1.8949,-1.8959,-1.8991,-1.8994,0,0,0,-1.8834,-1.8844,-1.8852,-1.8867,-1.8881,-1.8893,-1.8907,-1.8914,-1.8934,-1.8917,-1.8954,-1.8955,-1.8961,-1.8965,-1.8968,-1.8973,-1.8944,-1.8944,-1.8944,-1.8859,-1.8865,-1.8887,-1.8896,-1.891,-1.8924,-1.8936,-1.8947,-1.8949,-1.8957,-1.8964,-1.8983,-1.8988,-1.8989,-1.8995,-1.897,-1.897,-1.897,-1.897,-1.8891,-1.8905,-1.8906,-1.8928,-1.8934,-1.8952,-1.8966,-1.8967,-1.8984,-1.8979,-1.8985,-1.8977,-1.8992,-1.8997,-1.897,-1.897,-1.897,-1.897,-1.897,-1.8907,-1.8915,-1.8922,-1.8942,-1.8957,-1.8966,-1.8983,-1.8988,-1.8992,-1.8998,-1.9005,-1.9005,-1.9005,-1.9001,-1.9001,-1.9001,-1.9001,-1.9001,-1.9001,-1.8921,-1.8929,-1.8942,-1.8958,-1.8967,-1.8979,-1.8993,-1.9002,-1.9013,-1.9015,-1.9015,-1.9016,-1.8993,-1.8986,-1.9002,-1.9002,-1.9002,-1.9002,-1.9002,-1.8949,-1.8943,-1.8964,-1.8973,-1.8991,-1.9005,-1.901,-1.9028,-1.9036,-1.9044,-1.9043,-1.9026,-1.9026,-1.9024,-1.9019,-1.9043,-1.9043,-1.9043,-1.9043,-1.8962,-1.8963,-1.8984,-1.8998,-1.9012,-1.9019,-1.9041,-1.9051,-1.906,-1.9066,-1.9063,-1.9057,-1.9055,-1.9056,-1.9054,-1.9048,-1.9079,-1.9079,-1.9079,-1.898,-1.8982,-1.9,-1.9008,-1.9023,-1.9034,-1.9055,-1.907,-1.908,-1.9081,-1.9069,-1.9068,-1.9058,-1.9054,-1.9054,-1.9051,-1.9042,0,0]},{"header":{"parameterUnit":"m.s-1","parameterCategory":1,"la1":30.2992,"la2":30.254,"lo1":-89.0895,"lo2":-89.0443,"dy":0.0025,"dx":0.0025,"nx":19,"ny":19,"refTime":"2026-03-10T03:00:00:Z","depth":0,"parameterNumber":3,"parameterNumberName":"V-component_of_WINDS"},"data":[0,0,0,3.2052,3.2054,3.2144,3.2144,3.2259,3.226,0,0,0,0,0,0,0,0,0,0,0,3.2022,3.2022,3.2052,3.2054,3.2144,3.2144,3.2258,3.226,0,0,0,0,0,0,0,0,0,0,0,3.2021,3.2022,3.2023,3.2054,3.2144,3.2144,3.2258,3.2191,0,0,0,0,0,0,0,0,0,0,3.2104,3.2072,3.2022,3.2023,3.2055,3.2144,3.2144,3.2188,3.2195,3.2216,0,3.2231,0,3.2247,3.2267,3.2267,0,0,0,3.2058,3.2065,3.2093,3.2023,3.2056,3.2144,3.2104,3.2192,3.2201,3.2226,3.2233,3.2237,3.2249,3.2268,3.2268,3.2372,3.2373,0,0,3.2053,3.2036,3.2087,3.2098,3.2081,3.2101,3.2107,3.2197,3.2205,3.2233,3.224,3.2251,3.2268,3.2269,3.2372,3.2373,0,0,0,3.2036,3.2033,3.2058,3.2093,3.2109,3.2104,3.211,3.2201,3.221,3.2241,3.2252,3.2269,3.227,3.2372,3.2372,3.2373,0,0,0,3.2033,3.2023,3.2056,3.2047,3.2108,3.2155,3.2112,3.2204,3.2215,3.2252,3.2269,3.2271,3.2371,3.2372,3.2372,3.2376,0,0,0,3.2017,3.2021,3.2033,3.2046,3.2083,3.2154,3.2169,3.2207,3.2221,3.2267,3.2272,3.2371,3.2372,3.2371,3.2375,3.24,0,0,0,3.1996,3.2031,3.2032,3.2077,3.2083,3.2153,3.2169,3.2222,3.2262,3.2269,3.2372,3.2372,3.2371,3.2374,3.2399,3.2419,3.2425,0,0,3.2032,3.2035,3.2063,3.2066,3.2132,3.214,3.2208,3.226,3.228,3.2342,3.2344,3.2372,3.2375,3.24,3.2464,3.2469,0,0,0,3.2069,3.2088,3.211,3.2145,3.2185,3.2222,3.2265,3.2285,3.2338,3.2307,3.2388,3.239,3.2406,3.2416,3.242,3.2436,3.2376,3.2376,3.2376,3.2096,3.212,3.2168,3.2203,3.2238,3.2284,3.2316,3.2351,3.2364,3.2384,3.2402,3.2438,3.2449,3.2452,3.2468,3.2413,3.2413,3.2413,3.2413,3.2153,3.2185,3.2203,3.2256,3.2282,3.2328,3.2375,3.2384,3.2433,3.2425,3.244,3.243,3.2457,3.2472,3.2414,3.2414,3.2414,3.2414,3.2413,3.2174,3.2194,3.2217,3.2274,3.2316,3.2351,3.2398,3.2419,3.2441,3.2456,3.2479,3.2479,3.2484,3.2465,3.2465,3.2465,3.2465,3.2466,3.2466,3.2188,3.2214,3.2249,3.2296,3.2324,3.2364,3.2412,3.2441,3.2479,3.2492,3.2492,3.2506,3.2454,3.2441,3.2468,3.2467,3.2467,3.2467,3.2467,3.2239,3.2231,3.2285,3.2313,3.2372,3.2414,3.2442,3.25,3.2527,3.255,3.2561,3.2518,3.2524,3.2521,3.2511,3.2554,3.2554,3.2554,3.2554,3.2258,3.2263,3.2325,3.2368,3.2413,3.2445,3.251,3.2549,3.2589,3.2608,3.2605,3.2594,3.2589,3.2598,3.2593,3.2584,3.2645,3.2645,3.2645,3.2292,3.2302,3.2351,3.2388,3.2437,3.248,3.2542,3.2595,3.2638,3.2649,3.2625,3.2621,3.2602,3.2594,3.2604,3.2597,3.2581,0,0]}]]